Regional Weather Roundup
Issued by NWS Sterling, VA

Home | Current Version | Previous Version | Graphics & Text | Print | Product List | Glossary On
Versions: 1 2 3 4 5 6 7 8 9 10 11 12 13 14 15 16 17 18 19 20 21 22 23 24 25 26 27 28 29 30 31 32 33 34 35 36 37 38 39 40 41 42 43 44 45 46 47 48 49 50
000
ASUS41 KLWX 230411
RWRLWX

REGIONAL WEATHER ROUNDUP
NATIONAL WEATHER SERVICE BALTIMORE MD/WASHINGTON DC
1200 AM EDT TUE MAY 23 2017

Note: "FAIR" indicates few or no clouds below 12,000 feet
with no significant weather and/or obstructions to visibility.
 TC=TEMPERATURE CELSIUS

 * =Non NWS site. Station does not report precipitation (e.g. rain,
    snow, etc.), thunder, or fog.

DCZ001-MDZ009-015-VAZ040>042-051-053>054-230500-
WASHINGTON METRO

CITY           SKY/WX    TMP DP  RH WIND       PRES   REMARKS
WASHINGTON NAT PTCLDY    66  65  96 CALM      29.99R
DULLES         MOCLDY    64  62  93 NW6       29.99R
ANDREWS AFB    FOG       59  59 100 N6        29.97S VSB 1/2
FT BELVOIR     CLOUDY    62  61  96 CALM      29.97F
QUANTICO       CLOUDY    65  65 100 N3        29.97F
COLLEGE PARK*  CLEAR     60  60  98 CALM      29.98R
LEESBURG*      CLEAR     64  59  82 N10       30.01S
MANASSAS*        N/A     63  61  93 CALM      29.99S
GAITHERSBURG*  CLEAR     59  57  94 CALM      30.00S FOG

$$

MDZ006>007-011-014-230500-
BALTIMORE METRO

CITY           SKY/WX    TMP DP  RH WIND       PRES   REMARKS
BWI AIRPORT    PTCLDY    61  61 100 W3        29.98S FOG
MD SCIENCE CTR   N/A     66  62  87 MISG      29.99S
MARTIN STATE   CLEAR     61  61 100 CALM      29.99S FOG
ANNAPOLIS      CLEAR     64  64 100 CALM      29.97F
FORT MEADE*    CLEAR     57  55  94 CALM      30.01R

$$

MDZ012-015-019>023-230500-
MARYLAND EASTERN SHORE

CITY           SKY/WX    TMP DP  RH WIND       PRES   REMARKS
OCEAN CITY     MOCLDY    66  65  96 N8        29.94F
SALISBURY      FOG       66  66 100 NW5       29.95S VSB 1/4
BAY BRIDGE AP* CLOUDY    63  61  94 CALM      29.98S FOG
CAMBRIDGE*     CLOUDY    64  64 100 N7        29.96S
EASTON*        FOG       64  63  94 NE6       30.00S VSB 1/4

$$

MDZ017>025-230500-
SOUTHERN MARYLAND

CITY           SKY/WX    TMP DP  RH WIND       PRES   REMARKS
PATUXENT RIVER CLOUDY    63  63 100 NW3       29.95F
ST INIGOES     CLOUDY    64  64 100 CALM      29.95F FOG
LEONARDTOWN*   CLOUDY    59  59 100 CALM      29.98F VSB 1/2

$$

MDZ003>005-230500-
NORTH CENTRAL MARYLAND

CITY           SKY/WX    TMP DP  RH WIND       PRES   REMARKS
FREDERICK*     FOG       61  61 100 CALM      30.02F VSB 1/4
HAGERSTOWN APT CLOUDY    60  49  66 NW6       30.00F
WESTMINSTER*   PTCLDY    63  63 100 CALM      30.01R FOG

$$

MDZ501>502-230500-
WESTERN MARYLAND

CITY           SKY/WX    TMP DP  RH WIND       PRES   REMARKS
OAKLAND*       CLOUDY    48  46  93 NW3       30.07F
CUMBERLAND*    CLOUDY    57  50  77 CALM      30.06F

$$

VAZ025>031-230500-
SHENANDOAH VALLEY

CITY           SKY/WX    TMP DP  RH WIND       PRES   REMARKS
WINCHESTER*    CLEAR     59  50  72 NW3       30.01F
FRONT ROYAL*   CLEAR     59  52  77 CALM      30.00F
LURAY*         CLOUDY    59  52  77 NE3       30.00F
NEW MARKET*    CLOUDY    56  51  82 CALM      30.00F
STAUNTON*      MOCLDY    59  50  71 CALM      30.02F
WAYNESBORO*    CLOUDY    58  54  85 CALM      30.01F

$$

WVZ021-048>050-054>055-230500-
EASTERN WEST VIRGINIA PANHANDLE

CITY           SKY/WX    TMP DP  RH WIND       PRES   REMARKS
MARTINSBURG    CLEAR     62  49  62 N6        29.99F
PETERSBURG*    PTCLDY    53  51  93 CALM      30.03F

$$

VAZ036>039-050-230500-
CENTRAL FOOTHILLS

CITY           SKY/WX    TMP DP  RH WIND       PRES   REMARKS
CHARLOTTESVILL CLOUDY    69  67  93 N3        29.97F
CULPEPER*      CLOUDY    65  65 100 CALM      30.00F FOG
ORANGE*        CLOUDY    64  64 100 CALM      29.98S
GORDONSVILLE*  CLOUDY    67  67 100 NE3       29.97F
WARRENTON*     CLOUDY    65  63  90 CALM      29.98F

$$

VAZ055>057-230500-
NORTH AND CENTRAL PIEDMONT

CITY           SKY/WX    TMP DP  RH WIND       PRES   REMARKS
FREDERICKSBRG* MOCLDY    65  65 100 NW5       29.97S
STAFFORD*      MOCLDY    62  62 100 NW3       30.02S

$$

NCZ024-NYZ072-PAZ021-071-VAZ022-071-230500-
OTHER REGIONAL OBSERVATIONS

CITY           SKY/WX    TMP DP  RH WIND       PRES   REMARKS
NEW YORK CITY  CLOUDY    60  59  96 CALM      29.98S FOG
PHILADELPHIA   CLOUDY    65  60  84 NW5       29.97S
PITTSBURGH     CLOUDY    53  49  86 CALM      30.03F
ROANOKE        PTCLDY    63  55  75 CALM      30.01F
RICHMOND       CLOUDY    64  64 100 SE3       29.96F
RALEIGH        TSTM      70  69  97 SW12      29.98R FOG

$$

ANZ530>537-230500-
MARINE OBSERVATIONS

STATION/POSITION TIME  TEMP    WIND        PRES
                       AIR SEA DIR/SP/G
                 (UTC) (F)     (DEG/KT/KT) (MB)
THOMAS PT LIGHT  0400   63 65   30/  7/  8   N/A
BALT KEY BRIDGE  0348   64     350/  5/  6 1014.9F
COVE POINT       0348   65     350/  7/  7 1015.1F
LEWISETTA        0348   66 69   CALM  /  2 1014.2F
SOLOMONS ISLAND  0348          320/  4/  5   N/A
PINEY POINT      0348          360/  4/  4   N/A

$$




USA.gov is the U.S. government's official web portal to all federal, state and local government web resources and services.